EN

Hourly Weather Abdulkarimovo

Today, 12 June, Saturday

Time Temperature Precipitation Wind Pressure Humidity
00:00 +14°C° 0 mm 4 mps 723 mmHg 66%
01:00 +14°C° 0 mm 4 mps 723 mmHg 62%
02:00 +14°C° 0 mm 4 mps 723 mmHg 62%
03:00 +13°C° 0 mm 4 mps 723 mmHg 61%
04:00 +13°C° 0 mm 4 mps 723 mmHg 61%
05:00 +14°C° 0 mm 5 mps 723 mmHg 59%
06:00 +15°C° 0 mm 5 mps 724 mmHg 57%
07:00 +16°C° 0 mm 6 mps 724 mmHg 55%
08:00 +17°C° 0 mm 6 mps 724 mmHg 51%
09:00 +20°C° 0 mm 7 mps 724 mmHg 46%
10:00 +22°C° 0 mm 7 mps 724 mmHg 42%
11:00 +23°C° 0 mm 7 mps 724 mmHg 41%
12:00 +24°C° 0 mm 6 mps 724 mmHg 39%
13:00 +26°C° 0 mm 6 mps 724 mmHg 37%
14:00 +23°C° 0.1 mm 6 mps 724 mmHg 48%
15:00 +21°C° 0.1 mm 5 mps 724 mmHg 59%
16:00 +25°C° 0 mm 4 mps 724 mmHg 46%
17:00 +22°C° 0 mm 3 mps 723 mmHg 53%
18:00 +21°C° 0 mm 2 mps 723 mmHg 60%
19:00 +19°C° 0 mm 2 mps 723 mmHg 66%
20:00 +18°C° 0.1 mm 2 mps 723 mmHg 69%
21:00 +18°C° 0.1 mm 3 mps 724 mmHg 71%
22:00 +17°C° 0.1 mm 3 mps 724 mmHg 73%
23:00 +17°C° 0.4 mm 3 mps 724 mmHg 77%

Tomorrow, 13 June, Sunday

Time Temperature Precipitation Wind Pressure Humidity
00:00 +17°C° 0.4 mm 2 mps 724 mmHg 81%
01:00 +16°C° 0.4 mm 2 mps 724 mmHg 85%
02:00 +16°C° 0 mm 3 mps 724 mmHg 79%
03:00 +16°C° 0 mm 3 mps 725 mmHg 73%
04:00 +15°C° 0 mm 4 mps 725 mmHg 67%
05:00 +15°C° 0 mm 4 mps 725 mmHg 63%
06:00 +17°C° 0 mm 4 mps 725 mmHg 59%
07:00 +16°C° 0 mm 5 mps 726 mmHg 55%
08:00 +17°C° 0.1 mm 4 mps 726 mmHg 58%
09:00 +15°C° 0.1 mm 4 mps 726 mmHg 62%
10:00 +15°C° 0.1 mm 4 mps 726 mmHg 66%
11:00 +17°C° 0 mm 4 mps 726 mmHg 63%
12:00 +18°C° 0 mm 4 mps 726 mmHg 61%
13:00 +19°C° 0 mm 4 mps 726 mmHg 59%
14:00 +20°C° 0 mm 4 mps 726 mmHg 54%
15:00 +22°C° 0 mm 4 mps 726 mmHg 48%
16:00 +23°C° 0 mm 4 mps 726 mmHg 43%
17:00 +23°C° 0 mm 4 mps 726 mmHg 48%
18:00 +22°C° 0 mm 3 mps 726 mmHg 54%
19:00 +23°C° 0 mm 2 mps 726 mmHg 59%
20:00 +21°C° 0 mm 2 mps 726 mmHg 58%
21:00 +19°C° 0 mm 2 mps 726 mmHg 57%
22:00 +18°C° 0 mm 2 mps 726 mmHg 56%
23:00 +18°C° 0 mm 2 mps 726 mmHg 53%

Day after tomorrow, 14 June, Monday

Time Temperature Precipitation Wind Pressure Humidity
00:00 +18°C° 0 mm 2 mps 726 mmHg 50%
01:00 +18°C° 0 mm 2 mps 726 mmHg 47%
02:00 +17°C° 0 mm 2 mps 726 mmHg 49%
03:00 +16°C° 0 mm 2 mps 726 mmHg 50%
04:00 +15°C° 0 mm 2 mps 726 mmHg 52%
05:00 +16°C° 0 mm 3 mps 727 mmHg 51%
06:00 +18°C° 0 mm 3 mps 727 mmHg 49%
07:00 +19°C° 0 mm 4 mps 727 mmHg 48%
08:00 +21°C° 0 mm 4 mps 727 mmHg 44%
09:00 +22°C° 0 mm 5 mps 728 mmHg 40%
10:00 +25°C° 0 mm 5 mps 728 mmHg 36%
11:00 +26°C° 0 mm 5 mps 728 mmHg 34%
12:00 +27°C° 0 mm 5 mps 728 mmHg 32%
13:00 +28°C° 0 mm 5 mps 728 mmHg 30%
14:00 +28°C° 0 mm 5 mps 727 mmHg 31%
15:00 +28°C° 0 mm 4 mps 727 mmHg 31%
16:00 +28°C° 0 mm 4 mps 727 mmHg 31%
17:00 +27°C° 0 mm 3 mps 727 mmHg 38%
18:00 +25°C° 0 mm 2 mps 726 mmHg 46%
19:00 +24°C° 0 mm 2 mps 726 mmHg 53%
20:00 +22°C° 0 mm 1 mps 726 mmHg 54%
21:00 +21°C° 0 mm 1 mps 726 mmHg 54%
22:00 +19°C° 0 mm 1 mps 726 mmHg 54%
23:00 +18°C° 0 mm 1 mps 726 mmHg 56%

15 June, Tuesday

Time Temperature Precipitation Wind Pressure Humidity
00:00 +18°C° 0 mm 1 mps 726 mmHg 57%
01:00 +16°C° 0 mm 1 mps 725 mmHg 58%
02:00 +16°C° 0 mm 1 mps 725 mmHg 59%
03:00 +16°C° 0 mm 1 mps 725 mmHg 60%
04:00 +15°C° 0 mm 1 mps 725 mmHg 61%
05:00 +18°C° 0 mm 1 mps 725 mmHg 58%
06:00 +20°C° 0 mm 1 mps 726 mmHg 55%
07:00 +21°C° 0 mm 2 mps 726 mmHg 52%
08:00 +24°C° 0 mm 2 mps 726 mmHg 47%
09:00 +25°C° 0 mm 3 mps 726 mmHg 43%
10:00 +27°C° 0 mm 3 mps 726 mmHg 38%
11:00 +27°C° 0 mm 3 mps 725 mmHg 36%
12:00 +28°C° 0 mm 3 mps 725 mmHg 33%
13:00 +29°C° 0 mm 3 mps 725 mmHg 31%
14:00 +29°C° 0 mm 3 mps 724 mmHg 31%
15:00 +29°C° 0 mm 3 mps 724 mmHg 31%
16:00 +29°C° 0 mm 3 mps 724 mmHg 30%
17:00 +28°C° 0 mm 2 mps 724 mmHg 38%
18:00 +27°C° 0 mm 2 mps 723 mmHg 46%
19:00 +25°C° 0 mm 1 mps 723 mmHg 53%
20:00 +24°C° 0 mm 1 mps 723 mmHg 53%
21:00 +22°C° 0 mm 1 mps 723 mmHg 54%
22:00 +21°C° 0 mm 1 mps 722 mmHg 54%
23:00 +20°C° 0 mm 1 mps 722 mmHg 54%

16 June, Wednesday

Time Temperature Precipitation Wind Pressure Humidity
00:00 +18°C° 0 mm 0 mps 722 mmHg 55%
01:00 +17°C° 0 mm 0 mps 722 mmHg 56%
02:00 +17°C° 0 mm 0 mps 722 mmHg 57%
03:00 +16°C° 0 mm 0 mps 722 mmHg 57%
04:00 +16°C° 0 mm 0 mps 722 mmHg 58%
05:00 +18°C° 0 mm 0 mps 722 mmHg 56%
06:00 +21°C° 0 mm 1 mps 722 mmHg 54%
07:00 +23°C° 0 mm 1 mps 723 mmHg 52%
08:00 +24°C° 0 mm 2 mps 723 mmHg 49%
09:00 +25°C° 0 mm 2 mps 723 mmHg 45%
10:00 +27°C° 0 mm 3 mps 723 mmHg 42%
11:00 +27°C° 0 mm 2 mps 723 mmHg 39%
12:00 +28°C° 0 mm 2 mps 722 mmHg 36%
13:00 +29°C° 0 mm 2 mps 722 mmHg 34%
14:00 +30°C° 0 mm 2 mps 722 mmHg 33%
15:00 +30°C° 0 mm 2 mps 722 mmHg 32%
16:00 +30°C° 0 mm 3 mps 721 mmHg 32%
17:00 +29°C° 0 mm 2 mps 721 mmHg 39%
18:00 +28°C° 0 mm 1 mps 721 mmHg 46%
19:00 +26°C° 0 mm 1 mps 720 mmHg 53%
20:00 +25°C° 0 mm 1 mps 720 mmHg 52%
21:00 +24°C° 0 mm 1 mps 720 mmHg 51%
22:00 +23°C° 0 mm 2 mps 719 mmHg 50%
23:00 +21°C° 0.1 mm 2 mps 719 mmHg 55%

17 June, Thursday

Time Temperature Precipitation Wind Pressure Humidity
00:00 +21°C° 0.1 mm 1 mps 719 mmHg 60%
01:00 +20°C° 0.1 mm 1 mps 718 mmHg 65%
02:00 +19°C° 0.2 mm 1 mps 718 mmHg 69%
03:00 +19°C° 0.2 mm 1 mps 718 mmHg 73%
04:00 +18°C° 0.2 mm 1 mps 717 mmHg 77%
05:00 +18°C° 0 mm 2 mps 717 mmHg 76%
06:00 +19°C° 0 mm 3 mps 717 mmHg 75%
07:00 +21°C° 0 mm 3 mps 717 mmHg 75%
08:00 +22°C° 0 mm 4 mps 717 mmHg 69%
09:00 +25°C° 0 mm 5 mps 717 mmHg 64%
10:00 +26°C° 0 mm 6 mps 717 mmHg 58%
11:00 +26°C° 0.2 mm 6 mps 717 mmHg 60%
12:00 +26°C° 0.2 mm 6 mps 717 mmHg 62%
13:00 +26°C° 0.2 mm 6 mps 717 mmHg 64%
14:00 +24°C° 0.3 mm 7 mps 717 mmHg 66%
15:00 +24°C° 0.3 mm 7 mps 717 mmHg 68%
16:00 +23°C° 0.3 mm 7 mps 717 mmHg 70%
17:00 +22°C° 0 mm 7 mps 717 mmHg 68%
18:00 +21°C° 0 mm 7 mps 718 mmHg 67%
19:00 +20°C° 0 mm 7 mps 718 mmHg 65%
20:00 +17°C° 0 mm 6 mps 718 mmHg 65%
21:00 +15°C° 0 mm 5 mps 719 mmHg 65%
22:00 +14°C° 0 mm 5 mps 719 mmHg 65%
23:00 +13°C° 0 mm 4 mps 720 mmHg 70%
Show more